Millinocket, ME

6:21 AM EDT on May 23, 2018 (GMT -0400)
Millinocket Municipal

Weather History for KMLT - March, 2013

Change the Weather History Date:

Tuesday, March 12, 2013

  Actual Average Record
Temperature  
Mean Temperature 44 °F 27 °F  
Max Temperature 49 °F 37 °F 60 °F (1977)
Min Temperature 38 °F 17 °F -13 °F (1923)
Degree Days  
Heating Degree Days 21 38  
Month to date heating degree days 360 481  
Since 1 July heating degree days 5911 6533  
Cooling Degree Days 0 0  
Month to date cooling degree days 0 0  
Year to date cooling degree days 0 0  
Moisture  
Dew Point 41 °F    
Average Humidity 89    
Maximum Humidity 100    
Minimum Humidity 77    
Precipitation  
Precipitation 0.29 in 0.08 in 2.94 in (1936)
Month to date precipitation 0.70 0.91  
Year to date precipitation 4.13 6.02  
Sea Level Pressure  
Sea Level Pressure 30.05 in    
Wind  
Wind Speed 6 mph (SSE)    
Max Wind Speed 10 mph    
Max Gust Speed 20 mph    
Visibility 5 miles    
Events Rain    
T = Trace of Precipitation, MM = Missing Value Source: NWS Daily Summary

Daily Weather History Graph

Daily Weather History Graph

Search for Another Location

Airport or City:

Astronomy

Mar. 12, 2013 Rise Set
Actual Time 6:52 AM EDT 6:36 PM EDT
Civil Twilight 6:23 AM EDT 7:06 PM EDT
Nautical Twilight 5:48 AM EDT 7:41 PM EDT
Astronomical Twilight 5:13 AM EDT 8:16 PM EDT
Moon 6:52 AM EDT (3/12) 7:54 PM EDT (3/12)
Length of Visible Light 12h 43m
Length of Day
11h 44m
New Moon, 1% of the Moon is Illuminated
Mar 12
New Moon
Mar 19
First Quarter
Mar 27
Full
Apr 3
Last Quarter
Apr 10
New

Hourly Weather History & Observations

Time (EDT) Temp. Windchill Dew Point Humidity Pressure Visibility Wind Dir Wind Speed Gust Speed Precip Events Conditions
12:53 AM 37.9 °F 34.4 °F 35.1 °F 89% 30.13 in 7.0 mi South 4.6 mph - N/A   Overcast
1:25 AM 37.4 °F 34.9 °F 35.6 °F 93% 30.12 in 7.0 mi Variable 3.5 mph - N/A   Overcast
1:53 AM 37.9 °F 35.5 °F 36.0 °F 93% 30.16 in 6.0 mi Variable 3.5 mph - N/A   Overcast
2:53 AM 37.9 °F - 36.0 °F 93% 30.15 in 6.0 mi Calm Calm - N/A   Overcast
3:53 AM 37.9 °F - 37.0 °F 97% 30.14 in 5.0 mi Calm Calm - N/A   Overcast
4:48 AM 39.2 °F 35.9 °F 37.4 °F 93% 30.10 in 7.0 mi SSE 4.6 mph - N/A   Overcast
4:53 AM 39.9 °F 37.8 °F 37.0 °F 89% 30.12 in 8.0 mi Variable 3.5 mph - N/A   Overcast
5:53 AM 39.9 °F 36.7 °F 37.9 °F 93% 30.13 in 8.0 mi SSE 4.6 mph - N/A   Overcast
6:53 AM 39.9 °F 34.5 °F 37.9 °F 93% 30.12 in 7.0 mi South 8.1 mph - N/A   Overcast
7:32 AM 39.2 °F 35.0 °F 37.4 °F 93% 30.09 in 6.0 mi Variable 5.8 mph - N/A   Overcast
7:53 AM 39.9 °F 35.8 °F 37.9 °F 93% 30.12 in 5.0 mi Variable 5.8 mph - N/A   Overcast
8:19 AM 39.2 °F 35.0 °F 37.4 °F 93% 30.10 in 2.5 mi Variable 5.8 mph - N/A   Overcast
8:26 AM 39.2 °F 34.2 °F 37.4 °F 93% 30.10 in 1.8 mi Variable 6.9 mph - N/A   Overcast
8:50 AM 39.2 °F 34.2 °F 39.2 °F 100% 30.10 in 1.2 mi South 6.9 mph - N/A   Overcast
8:53 AM 39.9 °F 37.8 °F 39.0 °F 97% 30.13 in 1.0 mi Variable 3.5 mph - N/A   Overcast
9:53 AM 41.0 °F 38.0 °F 39.0 °F 93% 30.12 in 1.0 mi Variable 4.6 mph - N/A   Overcast
10:02 AM 41.0 °F 38.0 °F 39.2 °F 93% 30.09 in 0.8 mi Variable 4.6 mph - N/A   Overcast
10:34 AM 41.0 °F 37.1 °F 39.2 °F 93% 30.08 in 1.2 mi SSE 5.8 mph - N/A   Overcast
10:44 AM 41.0 °F 39.0 °F 39.2 °F 93% 30.08 in 1.8 mi Variable 3.5 mph - N/A   Overcast
10:53 AM 42.1 °F 40.2 °F 39.9 °F 92% 30.11 in 1.8 mi Variable 3.5 mph - N/A   Overcast
11:13 AM 42.8 °F - 41.0 °F 93% 30.07 in 3.0 mi Calm Calm - 0.00 in   Overcast
11:40 AM 42.8 °F - 41.0 °F 93% 30.07 in 2.5 mi Calm Calm - 0.00 in Rain Light Rain
11:53 AM 43.0 °F 38.8 °F 41.0 °F 93% 30.10 in 2.5 mi Variable 6.9 mph - 0.00 in Rain Light Rain
12:05 PM 42.8 °F 39.3 °F 42.8 °F 100% 30.07 in 4.0 mi SSE 5.8 mph - 0.00 in Rain Light Rain
12:26 PM 44.6 °F 40.7 °F 42.8 °F 93% 30.06 in 5.0 mi SSE 6.9 mph - 0.00 in   Overcast
12:42 PM 44.6 °F 42.2 °F 42.8 °F 93% 30.05 in 6.0 mi Variable 4.6 mph - 0.00 in   Overcast
12:53 PM 45.0 °F 41.8 °F 43.0 °F 93% 30.08 in 6.0 mi SSE 5.8 mph - 0.00 in Rain Light Rain
1:03 PM 44.6 °F 40.7 °F 42.8 °F 93% 30.05 in 7.0 mi SSE 6.9 mph - 0.00 in Rain Light Rain
1:35 PM 46.4 °F 42.4 °F 44.6 °F 93% 30.03 in 7.0 mi SSE 8.1 mph - 0.00 in Rain Light Rain
1:53 PM 48.0 °F - 43.0 °F 83% 30.05 in 10.0 mi SSE 8.1 mph - 0.00 in   Overcast
2:03 PM 48.2 °F - 42.8 °F 82% 30.03 in 10.0 mi Variable 6.9 mph - N/A   Overcast
2:53 PM 48.0 °F - 42.1 °F 80% 30.03 in 8.0 mi Variable 5.8 mph - N/A   Overcast
3:53 PM 48.9 °F - 41.0 °F 74% 30.03 in 10.0 mi SSE 10.4 mph 17.3 mph N/A   Overcast
4:16 PM 46.4 °F 42.9 °F 42.8 °F 87% 29.99 in 2.5 mi SE 6.9 mph 16.1 mph 0.00 in Rain Light Rain
4:23 PM 46.4 °F 42.4 °F 42.8 °F 87% 29.99 in 6.0 mi SE 8.1 mph - 0.00 in   Overcast
4:43 PM 48.2 °F - 42.8 °F 82% 29.98 in 10.0 mi SSE 8.1 mph - 0.00 in   Overcast
4:53 PM 48.0 °F - 42.1 °F 80% 30.00 in 9.0 mi SSE 11.5 mph - 0.00 in Rain Light Rain
5:25 PM 46.4 °F 42.9 °F 42.8 °F 87% 29.97 in 5.0 mi SE 6.9 mph - 0.01 in Rain Light Rain
5:53 PM 46.0 °F 41.9 °F 43.0 °F 89% 30.00 in 4.0 mi SE 8.1 mph - 0.03 in Rain Light Rain
6:29 PM 44.6 °F 40.7 °F 42.8 °F 93% 29.97 in 3.0 mi SSE 6.9 mph 18.4 mph 0.02 in Rain Light Rain
6:43 PM 44.6 °F 40.7 °F 42.8 °F 93% 29.96 in 3.0 mi SE 6.9 mph - 0.02 in Rain Light Rain
6:53 PM 45.0 °F 41.2 °F 43.0 °F 93% 29.99 in 6.0 mi Variable 6.9 mph - 0.02 in Rain Light Rain
7:53 PM 45.0 °F 41.8 °F 42.1 °F 90% 29.97 in 6.0 mi SSE 5.8 mph 17.3 mph 0.01 in Rain Light Rain
8:53 PM 44.1 °F 40.1 °F 42.1 °F 93% 29.94 in 4.0 mi SE 6.9 mph - 0.02 in Rain Light Rain
9:53 PM 44.1 °F 40.8 °F 42.1 °F 93% 29.91 in 6.0 mi ESE 5.8 mph - 0.07 in Rain Light Rain
10:53 PM 45.0 °F 41.8 °F 43.0 °F 93% 29.87 in 5.0 mi SE 5.8 mph - 0.05 in Rain Rain
11:53 PM 46.0 °F 43.9 °F 44.1 °F 93% 29.83 in 10.0 mi SE 4.6 mph - 0.05 in Rain Light Rain